EW4557 Weather Reports


Display with metric or nautical units.
time (UTC)temp
F
wind
direction
speed
MPH
gust
MPH
rain 1hr
in
rain 24hr
in
rain mn
in
humidity
%
barometer
mb
20260509222515 90 0 1.0 9.0 0.00 0.00 0.00 13 1009.0
20260509221555 89 0 5.0 10.0 0.00 0.00 0.00 14 1008.9
20260509215555 89 0 6.0 12.0 0.00 0.00 0.00 14 1009.1
20260509214515 89 0 6.0 13.0 0.00 0.00 0.00 14 1009.2
20260509213515 89 0 7.0 18.0 0.00 0.00 0.00 14 1009.3
20260509212515 89 0 3.0 12.0 0.00 0.00 0.00 14 1009.6
20260509211635 89 0 2.0 8.0 0.00 0.00 0.00 14 1009.9
20260509210515 88 0 2.0 8.0 0.00 0.00 0.00 15 1010.2
20260509205517 88 0 3.0 8.0 0.00 0.00 0.00 16 1010.5
20260509204557 87 0 5.0 11.0 0.00 0.00 0.00 15 1010.7
20260509203557 87 0 3.0 9.0 0.00 0.00 0.00 16 1011.0
20260509202557 87 0 3.0 10.0 0.00 0.00 0.00 17 1011.4
20260509201517 86 0 5.0 9.0 0.00 0.00 0.00 16 1011.4
20260509200516 86 0 2.0 8.0 0.00 0.00 0.00 16 1011.7
20260509194516 87 0 7.0 15.0 0.00 0.00 0.00 16 1012.0
20260509193637 86 0 7.0 13.0 0.00 0.00 0.00 16 1011.9
20260509192635 86 0 9.0 16.0 0.00 0.00 0.00 15 1012.1
20260509191516 86 0 4.0 10.0 0.00 0.00 0.00 18 1012.3
20260509190556 85 0 2.0 10.0 0.00 0.00 0.00 19 1012.3
20260509185516 84 0 4.0 12.0 0.00 0.00 0.00 19 1012.6
20260509184516 83 0 4.0 11.0 0.00 0.00 0.00 22 1012.7
20260509183517 82 0 3.0 12.0 0.00 0.00 0.00 24 1013.0
20260509182556 81 0 4.0 9.0 0.00 0.00 0.00 25 1013.1
20260509180516 80 0 4.0 11.0 0.00 0.00 0.00 25 1013.8
20260509175516 80 0 4.0 12.0 0.00 0.00 0.00 26 1014.0
20260509174636 79 0 5.0 14.0 0.00 0.00 0.00 27 1014.4
20260509173516 78 0 6.0 10.0 0.00 0.00 0.00 28 1014.8
20260509172556 77 0 4.0 11.0 0.00 0.00 0.00 29 1015.1
20260509171516 76 0 4.0 11.0 0.00 0.00 0.00 30 1015.3
20260509170636 76 0 4.0 14.0 0.00 0.00 0.00 31 1015.5
20260509165556 75 0 5.0 11.0 0.00 0.00 0.00 31 1015.5
20260509164516 75 0 4.0 14.0 0.00 0.00 0.00 32 1015.7
20260509163556 74 0 6.0 13.0 0.00 0.00 0.00 33 1015.6
20260509162640 74 0 5.0 11.0 0.00 0.00 0.00 34 1015.9
20260509161636 73 0 6.0 12.0 0.00 0.00 0.00 35 1015.9
20260509155516 72 0 4.0 10.0 0.00 0.00 0.00 36 1016.2
20260509154516 71 0 6.0 13.0 0.00 0.00 0.00 36 1016.0
20260509153556 71 0 4.0 10.0 0.00 0.00 0.00 36 1016.3
20260509152516 71 0 5.0 13.0 0.00 0.00 0.00 37 1016.4
20260509151516 70 0 5.0 11.0 0.00 0.00 0.00 38 1016.4
20260509150556 70 0 6.0 10.0 0.00 0.00 0.00 37 1016.5
20260509145556 70 0 5.0 10.0 0.00 0.00 0.00 38 1016.6
20260509144516 69 0 5.0 9.0 0.00 0.00 0.00 39 1016.6
20260509143516 68 0 2.0 4.0 0.00 0.00 0.00 40 1016.6
20260509142636 67 0 1.0 4.0 0.00 0.00 0.00 42 1016.7
20260509141516 66 0 2.0 4.0 0.00 0.00 0.00 44 1016.7
20260509140516 64 0 3.0 5.0 0.00 0.00 0.00 46 1016.8
20260509135516 63 0 2.0 4.0 0.00 0.00 0.00 49 1016.7
20260509134556 60 0 2.0 4.0 0.00 0.00 0.00 53 1016.4
20260509132516 57 0 2.0 4.0 0.00 0.00 0.00 60 1016.2
20260509130556 53 0 2.0 4.0 0.00 0.00 0.00 66 1016.1
20260509123636 47 0 2.0 6.0 0.00 0.00 0.00 74 1015.5
20260509121555 46 0.0 0.0 0.00 0.00 0.00 72 1015.2
20260509120516 46 0.0 0.0 0.00 0.00 0.00 71 1015.0
20260509114636 46 0.0 1.0 0.00 0.00 0.00 71 1014.8
20260509113515 46 0 1.0 2.0 0.00 0.00 0.00 71 1015.0
20260509112555 47 0 0.0 2.0 0.00 0.00 0.00 70 1015.1
20260509110515 47 0.0 2.0 0.00 0.00 0.00 69 1015.2
20260509105556 48 0.0 3.0 0.00 0.00 0.00 68 1015.2
20260509104515 48 0 1.0 3.0 0.00 0.00 0.00 68 1015.2
20260509103515 48 0 1.0 2.0 0.00 0.00 0.00 69 1015.3
20260509102635 47 0 1.0 4.0 0.00 0.00 0.00 70 1015.3
20260509101555 46 0 1.0 3.0 0.00 0.00 0.00 72 1014.9
20260509100515 45 0.0 0.0 0.00 0.00 0.00 71 1014.5
20260509095515 45 0.0 1.0 0.00 0.00 0.00 71 1014.7
20260509093515 46 0 1.0 2.0 0.00 0.00 0.00 70 1014.7
20260509092635 46 0.0 0.0 0.00 0.00 0.00 68 1014.7
20260509091515 46 0.0 0.0 0.00 0.00 0.00 66 1014.5
20260509090515 47 0.0 0.0 0.00 0.00 0.00 65 1014.6
20260509085555 47 0.0 0.0 0.00 0.00 0.00 65 1014.7
20260509084515 47 0.0 0.0 0.00 0.00 0.00 65 1014.9
20260509083515 48 0.0 0.0 0.00 0.00 0.00 64 1015.1
20260509082555 49 0.0 1.0 0.00 0.00 0.00 62 1015.0
20260509075555 51 0.0 0.0 0.00 0.00 0.00 60 1015.2
20260509074555 51 0 1.0 2.0 0.00 0.00 0.00 59 1015.1
20260509073555 51 0 0.0 2.0 0.00 0.00 0.00 60 1015.0
20260509072515 51 0 0.0 2.0 0.00 0.00 0.00 59 1014.9
20260509071515 51 0.0 0.0 0.00 0.00 0.00 59 1014.7
20260509070515 51 0.0 0.0 0.00 0.00 0.00 56 1014.8
20260509065515 52 0.0 0.0 0.00 0.00 0.00 55 1014.9
20260509064555 52 0.0 0.0 0.00 0.00 0.00 53 1014.8
20260509062515 54 0.0 0.0 0.00 0.00 0.00 51 1014.8
20260509061515 55 0.0 0.0 0.00 0.00 0.00 49 1014.7
20260509060517 56 0.0 0.0 0.00 0.00 0.00 48 1015.0
20260509055556 57 0.0 0.0 0.00 0.00 0.00 45 1015.1
20260509054556 59 0.0 0.0 0.00 0.00 0.00 43 1015.3
20260509052556 63 0.0 0.0 0.00 0.00 0.00 39 1015.8
20260509051516 65 0.0 0.0 0.00 0.00 0.00 37 1016.2
20260509050556 66 0 0.0 2.0 0.00 0.00 0.00 36 1016.1
20260509045636 67 0 0.0 2.0 0.00 0.00 0.00 35 1016.4
20260509044516 68 0 1.0 4.0 0.00 0.00 0.00 35 1016.5
20260509042556 69 0 1.0 5.0 0.00 0.00 0.00 34 1016.4
20260509041516 69 0 1.0 6.0 0.00 0.00 0.00 34 1016.4
20260509040516 70 0 1.0 9.0 0.00 0.00 0.00 33 1016.3
20260509034556 70 0 4.0 10.0 0.00 0.00 0.00 32 1015.7
20260509033516 70 0 2.0 8.0 0.00 0.00 0.00 32 1015.7
20260509032636 71 0 2.0 5.0 0.00 0.00 0.00 31 1015.4
20260509031556 71 0 2.0 8.0 0.00 0.00 0.00 30 1014.9
20260509030556 71 0 3.0 10.0 0.00 0.00 0.00 30 1014.7
20260509025516 72 0 2.0 11.0 0.00 0.00 0.00 29 1014.5
20260509024516 72 0 2.0 6.0 0.00 0.00 0.00 29 1014.4
20260509023636 72 0 3.0 6.0 0.00 0.00 0.00 29 1013.9
20260509022515 73 0 2.0 5.0 0.00 0.00 0.00 28 1013.8
20260509021515 74 0 3.0 9.0 0.00 0.00 0.00 28 1013.7
20260509015555 75 0 3.0 8.0 0.00 0.00 0.00 27 1013.5
20260509014635 76 0 2.0 10.0 0.00 0.00 0.00 26 1013.2
20260509013555 76 0 3.0 6.0 0.00 0.00 0.00 25 1013.1
20260509012555 77 0 1.0 8.0 0.00 0.00 0.00 24 1012.9
20260509011515 79 0 3.0 8.0 0.00 0.00 0.00 24 1012.7
20260509010515 79 0 2.0 6.0 0.00 0.00 0.00 23 1012.4
20260509005635 80 0 3.0 8.0 0.00 0.00 0.00 22 1011.7
20260509004635 81 0 2.0 9.0 0.00 0.00 0.00 22 1011.3
20260509003555 81 0 3.0 10.0 0.00 0.00 0.00 21 1011.3
20260509002635 82 0 3.0 8.0 0.00 0.00 0.00 20 1011.4
20260509001515 83 0 1.0 3.0 0.00 0.00 0.00 20 1011.6
20260509000515 83 0 3.0 10.0 0.00 0.00 0.00 20 1012.0
20260508235515 82 0 3.0 6.0 0.00 0.00 0.00 19 1012.0
20260508234515 83 0 5.0 11.0 0.00 0.00 0.00 19 1012.4
20260508232515 84 0 2.0 5.0 0.00 0.00 0.00 19 1012.6
20260508231555 84 0 3.0 8.0 0.00 0.00 0.00 18 1012.7
20260508230515 83 0 3.0 9.0 0.00 0.00 0.00 19 1012.6
20260508225515 83 0 5.0 13.0 0.00 0.00 0.00 19 1012.6
20260508223515 83 0 3.0 10.0 0.00 0.00 0.00 18 1012.8